DLH1HL EDDS-EDDF

Flight info

Callsign DLH1HL
Flight time 0h 27m
Altitude 22000
Route ETASA2H ETASA T163 SPESA SPESA4B
Aircraft A320/M-V/N

Departure

Time 2026-05-04 17:24
Airport Stuttgart Airport (EDDS)

Arrival

Time 2026-05-04 17:51
Airport Frankfurt Main Airport (EDDF)
Time Latitude Longitude Altitude Speed Heading
2026-05-04 17:03 48.68935 9.20153 1288 ft 0 kts 164°
2026-05-04 17:20 48.68905 9.20166 1285 ft 7 kts 165°
2026-05-04 17:20 48.68862 9.20182 1284 ft 6 kts 166°
2026-05-04 17:21 48.68844 9.20128 1285 ft 6 kts 273°
2026-05-04 17:21 48.68800 9.19975 1287 ft 9 kts 204°
2026-05-04 17:22 48.68742 9.19962 1289 ft 8 kts 167°
2026-05-04 17:22 48.68699 9.19981 1289 ft 5 kts 163°
2026-05-04 17:23 48.68581 9.20096 1286 ft 17 kts 82°
2026-05-04 17:23 48.68645 9.20426 1285 ft 65 kts 72°
2026-05-04 17:23 48.69134 9.22991 1416 ft 163 kts 71°
2026-05-04 17:24 48.69404 9.24545 2255 ft 151 kts 69°
2026-05-04 17:24 48.70432 9.29804 3390 ft 206 kts 72°
2026-05-04 17:25 48.70843 9.31975 3780 ft 220 kts 72°
2026-05-04 17:25 48.71702 9.36492 4881 ft 226 kts 73°
2026-05-04 17:26 48.72782 9.40944 5125 ft 228 kts 49°
2026-05-04 17:26 48.77281 9.43088 6418 ft 258 kts 356°
2026-05-04 17:27 48.80933 9.41654 7557 ft 285 kts 331°
2026-05-04 17:27 48.84561 9.38960 9267 ft 296 kts 332°
2026-05-04 17:28 48.88385 9.36159 10483 ft 321 kts 332°
2026-05-04 17:29 48.94829 9.31375 11988 ft 363 kts 331°
2026-05-04 17:29 49.01783 9.26080 14098 ft 378 kts 331°
2026-05-04 17:30 49.08900 9.20639 16079 ft 388 kts 330°
2026-05-04 17:31 49.13769 9.16901 17354 ft 395 kts 330°
2026-05-04 17:31 49.21753 9.13338 19051 ft 412 kts 357°
2026-05-04 17:32 49.27531 9.14063 20094 ft 420 kts
2026-05-04 17:33 49.36321 9.15313 21589 ft 430 kts
2026-05-04 17:33 49.39312 9.15724 21914 ft 432 kts
2026-05-04 17:34 49.48558 9.17019 21928 ft 446 kts
2026-05-04 17:34 49.51623 9.17467 21426 ft 439 kts
2026-05-04 17:35 49.60606 9.18832 19654 ft 427 kts
2026-05-04 17:35 49.66156 9.21704 18563 ft 423 kts 27°
2026-05-04 17:35 49.68616 9.24163 17982 ft 421 kts 37°
2026-05-04 17:36 49.70824 9.27099 17363 ft 418 kts 39°
2026-05-04 17:36 49.73224 9.29583 16793 ft 413 kts 27°
2026-05-04 17:36 49.75852 9.31301 16234 ft 409 kts 17°
2026-05-04 17:36 49.78596 9.32357 15690 ft 404 kts
2026-05-04 17:37 49.81371 9.32462 15172 ft 397 kts 351°
2026-05-04 17:37 49.84012 9.31415 14663 ft 389 kts 334°
2026-05-04 17:37 49.86319 9.29327 14149 ft 382 kts 318°
2026-05-04 17:37 49.88129 9.26394 13630 ft 374 kts 302°
2026-05-04 17:38 49.89348 9.22889 13073 ft 366 kts 287°
2026-05-04 17:38 49.89938 9.19093 12529 ft 359 kts 273°
2026-05-04 17:38 49.90153 9.15258 11993 ft 357 kts 275°
2026-05-04 17:38 49.90637 9.11539 11472 ft 357 kts 282°
2026-05-04 17:39 49.92043 9.04202 10432 ft 352 kts 283°
2026-05-04 17:39 49.92746 9.00578 9903 ft 350 kts 284°
2026-05-04 17:39 49.93755 8.97149 9339 ft 351 kts 300°
2026-05-04 17:40 49.95383 8.94336 8805 ft 353 kts 318°
2026-05-04 17:40 49.97483 8.92395 8323 ft 353 kts 339°
2026-05-04 17:40 49.99902 8.92000 7872 ft 352 kts
2026-05-04 17:40 50.02163 8.93337 7421 ft 349 kts 36°
2026-05-04 17:41 50.03762 8.96080 6982 ft 341 kts 62°
2026-05-04 17:41 50.04712 8.99423 6550 ft 335 kts 72°
2026-05-04 17:41 50.05425 9.02856 6139 ft 330 kts 74°
2026-05-04 17:41 50.06151 9.06160 6016 ft 316 kts 71°
2026-05-04 17:42 50.06921 9.09294 5889 ft 304 kts 69°
2026-05-04 17:42 50.07994 9.12020 5762 ft 292 kts 46°
2026-05-04 17:42 50.09637 9.13697 5635 ft 278 kts 18°
2026-05-04 17:42 50.11493 9.13995 5510 ft 263 kts 348°
2026-05-04 17:43 50.13087 9.12950 5387 ft 247 kts 318°
2026-05-04 17:43 50.14082 9.10907 5176 ft 234 kts 290°
2026-05-04 17:43 50.14626 9.08523 4869 ft 233 kts 285°
2026-05-04 17:43 50.15091 9.06110 4531 ft 232 kts 284°
2026-05-04 17:44 50.15538 9.03709 4274 ft 227 kts 284°
2026-05-04 17:44 50.15754 9.01339 4106 ft 217 kts 263°
2026-05-04 17:44 50.15380 8.99065 4017 ft 218 kts 249°
2026-05-04 17:44 50.14856 8.96839 4018 ft 218 kts 249°
2026-05-04 17:45 50.14337 8.94621 4019 ft 218 kts 249°
2026-05-04 17:45 50.13816 8.92400 4021 ft 217 kts 249°
2026-05-04 17:45 50.13303 8.90210 4017 ft 210 kts 249°
2026-05-04 17:45 50.12816 8.88135 4012 ft 198 kts 249°
2026-05-04 17:46 50.12363 8.86207 4021 ft 185 kts 249°
2026-05-04 17:46 50.11938 8.84400 4025 ft 173 kts 249°
2026-05-04 17:46 50.11522 8.82636 4011 ft 173 kts 248°
2026-05-04 17:46 50.11123 8.80941 4007 ft 160 kts 248°
2026-05-04 17:47 50.10734 8.79303 4019 ft 170 kts 248°
2026-05-04 17:47 50.10443 8.78097 3995 ft 184 kts 248°
2026-05-04 17:47 50.09862 8.75641 3609 ft 182 kts 249°
2026-05-04 17:47 50.09429 8.73784 3310 ft 182 kts 249°
2026-05-04 17:48 50.08996 8.71947 3047 ft 179 kts 249°
2026-05-04 17:48 50.08569 8.70141 2782 ft 175 kts 249°
2026-05-04 17:48 50.08162 8.68421 2535 ft 165 kts 249°
2026-05-04 17:48 50.07779 8.66806 2324 ft 158 kts 250°
2026-05-04 17:49 50.07406 8.65236 2102 ft 151 kts 250°
2026-05-04 17:49 50.07061 8.63791 1950 ft 140 kts 251°
2026-05-04 17:49 50.06735 8.62382 1668 ft 139 kts 252°
2026-05-04 17:49 50.06395 8.60983 1427 ft 138 kts 250°
2026-05-04 17:50 50.06076 8.59573 1232 ft 138 kts 254°
2026-05-04 17:50 50.05748 8.58181 1033 ft 136 kts 250°
2026-05-04 17:50 50.05409 8.56808 853 ft 137 kts 252°
2026-05-04 17:50 50.05076 8.55421 712 ft 138 kts 252°
2026-05-04 17:51 50.04744 8.54026 505 ft 136 kts 253°
2026-05-04 17:51 50.04417 8.52680 351 ft 126 kts 253°
2026-05-04 17:51 50.04166 8.51602 330 ft 82 kts 249°
2026-05-04 17:51 50.04009 8.51076 327 ft 39 kts 235°
2026-05-04 17:52 50.03880 8.50887 323 ft 20 kts 208°
2026-05-04 17:52 50.03783 8.50919 333 ft 9 kts 91°
2026-05-04 17:52 50.03806 8.51032 334 ft 9 kts 70°
2026-05-04 17:53 50.03824 8.51110 331 ft 12 kts 70°
2026-05-04 17:53 50.03843 8.51187 333 ft 11 kts 68°
2026-05-04 17:54 50.04071 8.52139 338 ft 37 kts 68°
2026-05-04 17:54 50.04162 8.52492 350 ft 40 kts 70°
2026-05-04 17:54 50.04257 8.52893 360 ft 39 kts 69°
2026-05-04 17:54 50.04344 8.53277 368 ft 35 kts 71°
2026-05-04 17:55 50.04405 8.53622 375 ft 33 kts 83°
2026-05-04 17:55 50.04433 8.53981 375 ft 34 kts 84°
2026-05-04 17:55 50.04454 8.54355 374 ft 36 kts 83°
2026-05-04 17:55 50.04356 8.54712 362 ft 39 kts 134°
2026-05-04 17:56 50.04095 8.54887 352 ft 42 kts 163°
2026-05-04 17:56 50.03858 8.55055 356 ft 12 kts 122°
2026-05-04 17:56 50.03857 8.55167 349 ft 9 kts 74°
2026-05-04 17:56 50.03890 8.55290 354 ft 20 kts 69°
2026-05-04 17:57 50.03951 8.55542 351 ft 26 kts 69°
2026-05-04 17:57 50.04021 8.55824 352 ft 30 kts 68°
2026-05-04 17:57 50.04093 8.56146 356 ft 34 kts 70°